www.pogodaiklimat.ru

Погода и климат >> Архив погоды >> Россия >> Камчатский край >> Соболево


АРХИВ ПОГОДЫ в Соболево

Время (UTC), дата Ветер
(напр.,м/с)
 
Видим.   Явления Облачность Т
(С)
Тd
(С)
f
(%)
Тe
(С)
Тes
(С)
Комфортность P
(гПа)
Po
(гПа)
Тmin
(С)
Tmax
(С)
R
(мм)
R24
(мм)
S
(см)
18 13.06 ЮВ 2 10 км 10/10 600 м
[Sc]
+5.7 +5.1 96 +3 +3 1016.0 1012.9
21 13.06 Ю 2 10 км {туман} 10/10 300 м
[St]
+7.4 +6.7 95 +5 +5 1016.7 1013.6 +5.7 0.5
00 14.06 Ю 3 10 км {туман} 10/10 300 м
[St]
+9.4 +6.7 83 +7 +7 1017.2 1014.1
03 14.06 ЮЗ 4 20 км 10/10 600 м
[Sc]
+11.0 +6.9 76 +9 +9 1017.4 1014.3
06 14.06 ЮЗ 3 10 км 10/10 600 м
[Sc]
+9.3 +6.3 82 +7 +7 1018.1 1015.0
09 14.06 ЮЗ 1 10 км 10/10 600 м
[Sc]
+7.4 +5.5 88 +6 +6 1019.3 1016.2 +11.7
12 14.06 Ю 1 10 км 10/10 600 м
[Sc]
+7.0 +5.4 90 +6 +6 1020.2 1017.1
15 14.06 Ю 1 10 км 10/10 600 м
[Sc]
+7.0 +5.4 90 +6 +6 1020.8 1017.7
18 14.06 Ю 2 10 км 10/10 600 м
[Sc]
+7.3 +5.6 89 +5 +5 1021.4 1018.3
21 14.06 Ю 2 10 км 10/10 600 м
[Sc]
+8.3 +6.5 88 +6 +6 1021.7 1018.6 +6.9
00 15.06 ЮЗ 2 10 км 10/10 600 м
[Sc]
+9.4 +6.6 83 +8 +8 1022.0 1018.9
03 15.06 ЮЗ 3 10 км 10/10 600 м
[Sc]
+10.1 +6.1 76 +8 +8 1022.2 1019.2
06 15.06 ЮЗ 2 10 км 8/8 600 м
[Sc]
+10.8 +5.8 71 +10 +11 1022.4 1019.4
09 15.06 ЮЗ 2 50 км 6/3 600 м
[Sc Ci fib]
+8.0 +4.9 81 +6 +6 1022.7 1019.6 +11.3
12 15.06 Ю 1 10 км 10/10 600 м
[Sc]
+7.0 +5.5 90 +6 +6 1022.8 1019.7
15 15.06 ЮВ 1 10 км 10/10 600 м
[Sc]
+7.4 +5.9 90 +6 +6 1021.8 1018.7
18 15.06 Ю 3 20 км 10/10 600 м
[Sc]
+7.8 +4.3 79 +5 +5 1021.7 1018.6
21 15.06 Ю 4
{10}
10 км слаб. ливневой дождь 10/10 600 м
[Cb cap]
+8.7 +5.7 81 +6 +6 1021.5 1018.4 +6.3
00 16.06 Ю 6-11
{11}
10 км слаб. ливневой дождь 10/10 300 м
[Cb cap]
+9.4 +8.0 91 +6 +6 1021.7 1018.6
03 16.06 Ю 6-11
{13}
10 км {ливн. осадки} 10/10 300 м
[Sc]
+10.1 +8.4 89 +7 +7 1022.7 1019.7
06 16.06 Ю 5
{13}
10 км слаб. ливневой дождь 10/10 300 м
[Cb cap]
+9.9 +8.6 92 +7 +7 1023.0 1020.0
09 16.06 Ю 4
{12}
10 км слаб. ливневой дождь 10/10 300 м
[Cb cap]
+9.9 +8.6 92 +7 +7 1023.0 1020.0 +10.3 6
12 16.06 Ю 1 10 км слаб. ливневой дождь 10/10 300 м
[Cb cap]
+7.0 +6.1 94 +6 +6 1022.4 1019.3
15 16.06 Ю 2 10 км слаб. ливневой дождь 10/10 300 м
[Cb cap]
+6.7 +6.0 95 +4 +4 1021.2 1018.1
18 16.06 В 1 10 км слаб. ливневой дождь 10/10 300 м
[Cb cap]
+6.4 +5.8 96 +5 +5 1019.6 1016.5
21 16.06 СВ 2 10 км слаб. ливневой дождь 10/10 300 м
[Cb cap]
+7.5 +6.6 94 +5 +5 1017.7 1014.6 +6.4 9
00 17.06 СВ 1 10 км {ливн. осадки} 10/4 600 м
[Sc Ac und]
+9.5 +7.7 89 +9 +12 1015.0 1012.0
03 17.06 В 2 10 км слаб. ливневой дождь 10/10 600 м
[Cb cap]
+10.8 +9.6 92 +9 +9 1012.9 1009.8
06 17.06 СВ 2 10 км {ливн. осадки} 10/10 600 м
[Sc]
+12.1 +9.0 81 +11 +11 1009.2 1006.2
09 17.06 СВ 2 10 км {ливн. осадки} 10/10 600 м
[Sc]
+11.5 +7.2 75 +10 +10 1006.9 1003.8 +12.4 3
12 17.06 СВ 1 10 км {ливн. осадки} 8/8 600 м
[Sc]
+8.8 +6.1 83 +8 +8 1004.3 1001.3
15 17.06 штиль 0 10 км слаб. ливневой дождь 8/8 600 м
[Cb cap]
+8.5 +6.4 87 +8 +8 1001.8 998.8
18 17.06 С 1 10 км слаб. ливневой дождь 10/10 600 м
[Cb cap]
+9.1 +8.3 95 +8 +8 1000.5 997.5
21 17.06 В 3 10 км {ливн. осадки} 10/10 600 м
[Sc]
+12.7 +9.9 83 +11 +11 998.7 995.8 +8.5 4
00 18.06 В 2 10 км {ливн. осадки} 10/10 600 м
[Sc]
+15.1 +9.6 70 +15 +15 998.2 995.2
03 18.06 В 3 10 км {ливн. осадки} 10/10 600 м
[Sc]
+13.7 +9.9 78 +13 +13 997.7 994.7
06 18.06 СВ 1 10 км {ливн. осадки} 10/10 600 м
[Sc]
+15.8 +10.2 69 +17 +17 997.7 994.8
09 18.06 СВ 1 20 км 10/6 600 м
[Sc Ac und]
+13.4 +8.7 73 +14 +14 997.6 994.6 +16.1 1
12 18.06 ЮЗ 3 10 км слаб. ливневой дождь 10/10 600 м
[Cb cap]
+10.8 +9.1 89 +9 +9 1000.0 997.0
15 18.06 Ю 2 10 км слаб. ливневой дождь 10/10 600 м
[Cb cap]
+7.0 +6.0 93 +5 +5 1001.8 998.8
18 18.06 Ю 4 10 км слаб. ливневой дождь 10/10 600 м
[Cb cap]
+5.6 +4.5 93 +1 +1 1003.6 1000.5
21 18.06 Ю 4 10 км в посл. час ливневой дождь 10/10 300 м
[Sc diur, vesp]
+5.9 +4.3 89 +2 +2 1004.8 1001.7 +5.5 4
00 19.06 Ю 6-13
{13}
10 км {ливн. осадки} 8/8 300 м
[Sc diur, vesp]
+10.8 +3.7 61 +8 +9 1005.1 1002.1
03 19.06 Ю 8-14
{15}
10 км слаб. ливневой дождь 8/8 300 м
[Cb cap]
+9.9 +4.5 69 +6 +7 1006.1 1003.1
06 19.06 Ю 4
{14}
20 км {ливн. осадки} 10/10 1500 м
[Sc diur, vesp]
+10.5 +4.0 64 +8 +8 1005.2 1002.2
09 19.06 Ю 3
{13}
10 км в посл. час ливневой дождь 10/10 300 м
[Sc]
+7.4 +5.0 85 +5 +5 1006.2 1003.1 +12.1 0.8
12 19.06 Ю 4 10 км слаб. ливневой дождь 10/10 300 м
[Cb cap]
+6.2 +4.8 91 +2 +2 1007.6 1004.5
15 19.06 ЮВ 5-11
{11}
10 км слаб. ливневой дождь 10/10 300 м
[Cb cap]
+5.3 +4.1 92 +1 +1 1008.1 1005.1
18 19.06 Ю 6-10
{11}
10 км слаб. ливневой дождь 10/10 300 м
[Cb cap]
+5.2 +3.8 91 0 0 1008.3 1005.2
21 19.06 Ю 6-11
{12}
10 км слаб. ливневой дождь 10/10 300 м
[Cb cap]
+5.3 +3.7 89 0 0 1009.6 1006.5 +4.9 7
00 20.06 Ю 5
{13}
10 км слаб. ливневой дождь 10/10 300 м
[Cb cap]
+5.9 +4.8 93 +1 +1 1011.3 1008.3 +4.8
03 20.06 Ю 6-11
{13}
10 км {ливн. осадки} 10/10 300 м
[St]
+6.3 +4.5 88 +2 +2 1012.7 1009.6
06 20.06 Ю 6-10
{14}
10 км слаб. ливневой дождь 10/10 300 м
[Cb cap]
+6.3 +5.1 92 +1 +1 1013.7 1010.6
09 20.06 Ю 4
{10}
10 км слаб. ливневой дождь 10/10 300 м
[Cb cap]
+5.7 +5.0 95 +2 +2 1014.3 1011.2 +7.5 4
12 20.06 Ю 4 10 км слаб. ливневой дождь 10/10 300 м
[Cb cap]
+5.3 +4.6 95 +1 +1 1015.1 1012.0

 

Местоположение метеостанции Соболево (Камчатский край, Россия): широта 54.30 долгота 155.90 высота над уровнем моря 25 м.

В архиве по умолчанию представлена погода в Соболево за последнюю неделю. Архивные данные за месяц целиком и за предыдущие месяцы, начиная с января 2011 года, Вы можете получить, выбрав интересующий диапазон дат из раскрывающегося списка и нажав кнопку "Ввод!".


*Определитесь, кто Вы:
робот инопланетянин человек

Внимание! Время в таблицах - всемирное. Для получения местного времени необходимо прибавить поправку, которая равна 12 ч.

Смотрите также архив погоды в соседних городах и на ближайших метеорологических станциях:

Погода в Пущино (Камчатский край, Россия) (137 км)
Погода в Иче (Камчатский край, Россия) (145 км)
Погода в Большерецке (Камчатский край, Россия) (166 км)
Погода в Мильково (Камчатский край, Россия) (173 км)
Погода в Начиках (Камчатский край, Россия) (177 км)
Погода в Сосновке (Камчатский край, Россия) (208 км)
Погода в Петропавловск-Камч. 2 (Камчатский край, Россия) (218 км)
Погода в Долиновке (Камчатский край, Россия) (219 км)
Погода в Петропавловск-Камчатском (Камчатский край, Россия) (239 км)
Погода в Петропавловском Маяке (Камчатский край, Россия) (243 км)

Пояснения к столбцам:

Ветер - указаны скорость ветра в м/с - средняя за 10 мин, порывы в срок и между сроками (в фигурных скобках) и направление, откуда дует ветер: С - северный, СВ - северо-восточный, В - восточный, ЮВ - юго-восточный, Ю - южный, ЮЗ - юго-западный, З - западный, СЗ - северо-западный.
Видимость - горизонтальная дальность видимости в метрах или километрах. При видимости от 1 до 10 км при отсутствии осадков обычно наблюдается дымка, при ухудшении видимости до 1 км и менее - туман. В сухую погоду видимость может ухудшаться дымом, пылью или мглою.
Явления - указаны атмосферные явления, наблюдавшиеся в срок или в последний час перед сроком; фигурными скобками обозначены явления, наблюдавшиеся между сроками (за 1-3 часа до срока); квадратными скобками обозначены град или гололедные отложения с указанием их диаметра в мм.
Облачность - указаны через наклонную черту общая и нижняя облачность в баллах и высота нижней границы облаков в метрах; квадратными скобками обозначены формы облаков: Ci - перистые, Cs - перисто-слоистые, Cc - перисто-кучевые, Ac - высококучевые, As - высокослоистые, Sc - слоисто-кучевые, Ns - слоисто-дождевые, Cu - кучевые, Cb - кучево-дождевые. Подробнее классификацию облаков см. в Атласе облаков (PDF).
T - Температура воздуха - температура, измеренная на высоте 2 м над землей.
Td - Температура точки росы - температура, при понижении до которой содержащийся в воздухе водяной пар достигнет насыщения.
f - Относительная влажность воздуха - влажноcть воздуха, измеренная на высоте 2 м над землей.
Te - Эффективная температура - температура, которую ощущает одетый по сезону человек в тени. Характеристика душности погоды. При расчете учитывается влияние влажности воздуха и скорости ветра на теплоощущения человека.
Tes - Эффективная температура на солнце - температура, которую ощущает человек, с поправкой на солнечный нагрев. Характеристика знойности погоды. Зависит от высоты солнца над горизонтом, облачности и скорости ветра. Ночью, в пасмурную погоду, а также при ветре 12 м/с и более поправка равна нулю.
P - Атмосферное давление - приведенное к уровню моря атмосферное давление.
Po - Атмосферное давление - измеренное на уровне метеостанции атмосферное давление.
Tmin - Минимальная температура - минимум температуры воздуха на высоте 2 м над землей.
Tmax - Максимальная температура - максимум температуры воздуха на высоте 2 м над землей.
R - Количество осадков - Количество выпавших осадков за период времени, мм. При наведении курсора мыши на число - период времени, за который выпало указанное количество осадков.
R24 - Количество осадков - Количество выпавших осадков за 24 часа, мм.
S - Снежный покров - Высота снежного покрова, см. При наведении курсора мыши на число - состояние снежного покрова и степень покрытия местности в баллах.